Weather in Arys

Kazakhstan     42˚25′21″N   68˚47′50″E
temp.,
°C
wind,
m/s
gust,
m/s
humid.,
%
clouds,
%
prec.,
mm/h
press.,
hPa
HPBL,
m
28 november, sat
sat2800:00+6˚sw4747100 0.0 1023149
03:00+5˚sw61086100 1.9 1026534
06:00+2˚w91395100 7.8 1033751
09:00+2˚wsw7975100 0.4 1038814
12:00+3˚sw81185100 0.9 1041900
15:00+5˚wsw8105894 0.3 10421301
18:00+3˚w347290 0.3 1043121
21:00+1˚wnw128058 0.0 104422
29 november, sun
sun2900:00n128736 0.0 104422
03:00−1˚nne33920 0.0 104354
06:00−2˚ne33930 0.0 104465
09:00−2˚ne35900 0.0 1044103
12:00+2˚nne46590 0.0 1043457
15:00+3˚nne67490 0.0 1041519
18:00nne610660 0.0 1041309
21:00−2˚ne610690 0.0 1041287
30 november, mon
mon3000:00−3˚ne47720 0.0 1040210
03:00−4˚ne46740 0.0 1039170
06:00−4˚ne58700 0.0 1037196
09:00−4˚ne47700 0.0 1036187
12:00+1˚ne45490 0.0 1035364
15:00+3˚ne464326 0.0 1033493
18:00ne7116231 0.0 1032272
21:00−2˚ne5106777 0.0 1031305
1 december, tue
tue100:00−3˚ne376788 0.0 1031235
03:00−2˚ne4860100 0.0 1030288
06:00−2˚ne5858100 0.0 1029233
09:00−2˚ne5757100 0.0 1029172
12:00+2˚ene4544100 0.0 1029237
15:00+6˚ene2235100 0.0 1028387
18:00+3˚ne465399 0.0 1029112
21:00+1˚ne456057 0.0 102996
2 december, wed
wed200:00+3˚ene337065 0.0 102937
03:00+3˚e238383 0.0 102822
06:00+2˚e228765 0.0 102822
09:00+2˚ene128846 0.0 102822
12:00+8˚nnw006570 0.0 1028170
15:00+10˚nw10570 0.0 1027402
18:00+7˚nw127519 0.0 102722
21:00+5˚ne128193 0.0 102722